Regional Weather Roundup
Issued by NWS

Home | Current Version | Previous Version | Text Only | Print | Product List | Glossary Off
Versions: 1 2 3 4 5 6 7 8 9 10 11 12 13 14 15 16 17 18 19 20 21 22 23 24 25 26 27 28 29 30 31 32 33 34 35 36 37 38 39 40 41 42 43 44 45 46 47 48 49 50

000
ASUS43 KLOT 212308
RWRIL

ILLINOIS REGIONAL WEATHER ROUNDUP
NATIONAL WEATHER SERVICE CHICAGO/ROMEOVILLE IL
600 PM CDT SAT APR 21 2018

NOTE: "FAIR" INDICATES FEW OR NO CLOUDS BELOW 12,000 FEET WITH NO
SIGNIFICANT WEATHER AND/OR OBSTRUCTIONS TO VISIBILITY.

* THESE STATIONS ARE NOT UNDER NWS QUALITY CONTROL. THEY ALSO MAY NOT
  REPORT WEATHER SUCH AS PRECIPITATION OR FOG.

ILZ001-002-007-009-015-016-024-220000-
NORTHWEST ILLINOIS

CITY           SKY/WX    TMP DP  RH WIND       PRES   REMARKS
MOLINE         FAIR      58  27  30 E17       30.28F
STERLING*      FAIR      54  34  46 E13       30.33S
SAVANNA*       FAIR      56  33  42 E10       30.34R
$$

ILZ003-004-008-010-011-017-018-220000-
NORTH CENTRAL ILLINOIS

CITY           SKY/WX    TMP DP  RH WIND       PRES   REMARKS
ROCKFORD       CLOUDY    55  30  38 E8        30.36S
FREEPORT*      FAIR      53  34  48 E9        30.36F
ROCHELLE*      FAIR      54  32  43 E9        30.35R
DE KALB*       FAIR      55  31  39 E9        30.35R
PERU*          FAIR      56  33  40 E15       30.33S
$$

ILZ005-006-012>014-019>023-220000-
NORTHEAST ILLINOIS

CITY           SKY/WX    TMP DP  RH WIND       PRES   REMARKS
CHICAGO-OHARE  PTSUNNY   51  20  29 E9        30.35F
CHICAGO-MIDWAY PTSUNNY   50  20  30 E9        30.37S
AURORA         FAIR      55  30  38 E12       30.34S
LANSING*       FAIR      48  29  48 NE10      30.37S
JOLIET*        FAIR      54  29  38 E9        30.35S
WAUKEGAN       PTSUNNY   44  22  41 SE8       30.37S
DUPAGE AIRPORT FAIR      54  23  30 E9        30.34S
KANKAKEE*      FAIR      55  30  38 E10       30.34S
WHEELING       FAIR      50  17  27 E8        30.38F
MORRIS*        FAIR      54  29  38 E9        30.33S
ROMEOVILLE*    FAIR      52  27  37 E9        30.35S
NORTHERLY ISL    N/A     43  33  68 NE1         N/A
$$

LMZ740>746-220000-
SOUTHERN LAKE MICHIGAN

STATION/POSITION SKY/WX   TEMP    WIND        PRES    VSBY  WAVE
                          AIR SEA DIR/SP/G                  HT/PER
                          (F)     (DEG/KT/KT) (MB)    (MI)  (FT/S)
HARRISON CRIB              41      40/  3/  4   N/A
BURNHAM HARBOR             42      20/  1/  7   N/A
CALUMET HARBOR             42      30/  6/  7 1027.9F
BURNS HARBOR               43      70/  7/  8 1028.8F
MICHIGAN CITY              42      50/  5/  5   N/A
$$

ILZ025>027-034>036-040-047-049-050-058-095>099-220000-
WEST-CENTRAL ILLINOIS

CITY           SKY/WX    TMP DP  RH WIND       PRES   REMARKS
QUINCY         CLOUDY    61  27  27 E9        30.23S
GALESBURG*     FAIR      62  29  29 E15       30.29S
MACOMB*        CLOUDY    59  27  29 E14       30.28R
JACKSONVILLE*  CLOUDY    61  29  30 E15G22    30.24R
PITTSFIELD*    CLOUDY    62  30  29 E10G18    30.24R
$$

ILZ028>032-037-038-041>044-048-051>054-059>061-220000-
CENTRAL ILLINOIS

CITY           SKY/WX    TMP DP  RH WIND       PRES   REMARKS
PONTIAC        FAIR      57  32  38 NE16      30.32S
BLOOMINGTON    FAIR      57  27  31 E21       30.29F
DECATUR        FAIR      59  27  29 E18       30.26R
PEORIA         FAIR      58  29  33 E14G24    30.28F
LACON*         FAIR      56  30  37 E13G18    30.31R
LINCOLN*       CLOUDY    58  32  37 E17       30.26F
SPRINGFIELD    PTSUNNY   63  27  25 E15G25    30.24S
TAYLORVILLE    FAIR      61  27  27 E13G18    30.24S
$$

ILZ033-039-045-046-055>057-062-063-220000-
EAST-CENTRAL ILLINOIS

CITY           SKY/WX    TMP DP  RH WIND       PRES   REMARKS
CHAMPAIGN      FAIR      59  28  30 NE13      30.28F
DANVILLE*      FAIR      58  31  35 NE14      30.28S
RANTOUL*       FAIR      60  29  30 E17       30.29F
MATTOON        FAIR      60  30  32 NE18G26   30.25R
PARIS*         FAIR      58  32  38 NE13      30.28F
$$

ILZ079-100>102-220000-
SOUTHWEST ILLINOIS

CITY           SKY/WX    TMP DP  RH WIND       PRES   REMARKS
ALTON          CLOUDY    63  36  36 E15       30.21S
BELLEVILLE     CLOUDY    65  36  34 E8        30.18S
CAHOKIA*       MOSUNNY   65  33  30 E13       30.19S
SPARTA*        CLOUDY    64  41  42 E9        30.20R
$$

ILZ064>066-069>071-074>076-080>082-084>086-088>090-092>094-220000-
SOUTH-CENTRAL ILLINOIS

CITY           SKY/WX    TMP DP  RH WIND       PRES   REMARKS
CARBONDALE     FAIR      66  39  37 NE8       30.17R
CAIRO*         FAIR      71  35  27 E6        30.15R
EFFINGHAM*     FAIR      63  34  34 NE7       30.25R
MARION         PTSUNNY   66  34  30 E12       30.18R
MT. VERNON     FAIR      66  32  28 E9        30.21R
CENTRALIA*     CLOUDY    65  37  34 E9        30.21R
SALEM*         FAIR      65  31  27 NE8       30.22R
METROPOLIS*    FAIR      73  31  21 E9        30.15R
$$

ILZ067-068-072-073-078-083-087-091-220000-
SOUTHEAST ILLINOIS

CITY           SKY/WX    TMP DP  RH WIND       PRES   REMARKS
LAWRENCEVILLE  FAIR      66  29  24 NE15      30.23S
FLORA*         FAIR      65  32  28 E12G17    30.22S
FAIRFIELD*     FAIR      65  32  29 NE7       30.19S
HARRISBURG*    FAIR      66  36  32 E13       30.17S
ROBINSON*      FAIR      62  33  32 NE14G20   30.24F
CARMI*         FAIR      69  33  27 E13       30.19R
$$

ABBREVIATIONS USED IN REMARKS
   TC - TEMPERATURE IN CELSIUS
  WCI - WIND CHILL INDEX
   HX - HEAT INDEX
  VSB - VISIBILITY
$$





USA.gov is the U.S. government's official web portal to all federal, state and local government web resources and services.